Skip Page Navigation
NASA JPL Caltech
NASA Logo - Jet Propulsion Laboratory + View the NASA Portal
+ Near-Earth Object (NEO) Program
Search JPL
JPL Home Earth Solar System Stars & Galaxies Technology
JPL Solar System Dynamics
BODIES ORBITS EPHEMERIDES TOOLS PHYSICAL DATA DISCOVERY FAQ SITE MAP
JPL Small-Body Database Browser
Search: [ help ]  
(2004 XK164)
Classification: Main-belt Asteroid          SPK-ID: 3272809
Ephemeris | Orbit Diagram | Orbital Elements | Physical Parameters | Close-Approach Data ]

[ hide orbit diagram ]
Orbit Diagram
Note: Make sure you have Java enabled on your browser to see the applet. This applet is provided as a 3D orbit visualization tool. The applet was implemented using 2-body methods, and hence should not be used for determining accurate long-term trajectories (over several years or decades) or planetary encounter circumstances. For accurate long-term ephemerides, please instead use our Horizons system.
Orbit Viewer

Additional Notes: the orbits shown in the applet are color coded. The planets are white lines, and the asteroid/comet is a blue line. The bright white line indicates the portion of the orbit that is above the ecliptic plane, and the darker portion is below the ecliptic plane. Likewise for the asteroid/comet orbit, the light blue indicates the portion above the ecliptic plane, and the dark blue the portion below the ecliptic plane.

Orbit Viewer applet originally written and kindly provided by Osamu Ajiki (AstroArts), and further modified by Ron Baalke (JPL).


Orbital Elements at Epoch 2456400.5 (2013-Apr-18.0) TDB
Reference: JPL 1 (heliocentric ecliptic J2000)
 Element Value Uncertainty (1-sigma)   Units 
e .1730346298828429 5.188e-07  
a 2.327942085499281 7.2705e-08 AU
q 1.925127488346219 1.2396e-06 AU
i 9.820830722115065 2.4219e-05 deg
node 107.0248878859264 0.00021275 deg
peri 276.0181665072158 0.00022253 deg
M 161.3172366444749 6.1827e-05 deg
tp 2455819.153639834183
(2011-Sep-14.65363983)
0.00022901 JED
period 1297.348590968826
3.55
6.0777e-05
1.664e-07
d
yr
n .2774890283968794 1.3e-08 deg/d
Q 2.730756682652343 8.5286e-08 AU
  Orbit Determination Parameters
   # obs. used (total)      46  
   data-arc span      3039 days (8.32 yr)  
   first obs. used      2004-12-10  
   last obs. used      2013-04-06  
   planetary ephem.      DE405  
   SB-pert. ephem.      SB405-CPV-2  
   condition code      0  
   fit RMS      .4821  
   data source      ORB  
   producer      Otto Matic  
   solution date      2013-Apr-29 11:46:26  

Additional Information
 Earth MOID = .957535 AU 
 T_jup = 3.533 
[ show covariance matrix ]

Ephemeris | Orbit Diagram | Orbital Elements | Physical Parameters | Close-Approach Data ]

Physical Parameter Table
Parameter Symbol Value Units Sigma Reference Notes
absolute magnitude H 18.304 mag .41505 1 autocmod 2.5c

[ show close-approach data ]
Alternate Designations
 2004 XK164 = 2011 UU332 
Ephemeris | Orbit Diagram | Orbital Elements | Physical Parameters | Close-Approach Data ]
ABOUT SSD CREDITS/AWARDS PRIVACY/COPYRIGHT GLOSSARY LINKS
FirstGov 2013-May-24 06:17 UT
(server date/time)  
NASA Home Page
Site Manager:   Donald K. Yeomans
Webmaster  Alan B. Chamberlin